Location: CHKOBrdy
(49.7003°N, 13.8414°E)
Time: 17:29:28
(UTC+01:00)

ISS - Visible Passes

Search period start: 25 February 2020 00:00
Search period end: 06 March 2020 00:00
Orbit: 415 x 422 km, 51.6° (Epoch: 26 February)

Date Brightness Start Highest point End Pass type
(mag) Time Alt. Az. Time Alt. Az. Time Alt. Az.
25 Feb -0.8 04:24:26 11° SE 04:24:44 11° SE 04:25:52 10° ESE visible
25 Feb -3.0 05:57:38 10° SW 06:00:55 51° SSE 06:04:13 10° ENE visible
26 Feb -2.5 05:11:56 24° SSW 05:13:22 36° SSE 05:16:29 10° E visible
27 Feb -1.7 04:26:20 24° SE 04:26:20 24° SE 04:28:40 10° E visible
27 Feb -3.8 05:59:18 12° WSW 06:02:21 89° N 06:05:46 10° ENE visible
28 Feb -3.7 05:13:36 39° SW 05:14:42 70° SSE 05:18:05 10° ENE visible
29 Feb -2.5 04:27:51 40° ESE 04:27:51 40° ESE 04:30:22 10° ENE visible
29 Feb -3.6 06:00:48 12° W 06:03:52 64° N 06:07:14 10° ENE visible
01 Mar -0.6 03:42:02 14° E 03:42:02 14° E 03:42:36 10° E visible
01 Mar -3.8 05:14:59 38° W 05:16:08 74° NNW 05:19:32 10° ENE visible
02 Mar -3.1 04:29:07 54° ENE 04:29:07 54° ENE 04:31:50 10° ENE visible
02 Mar -3.4 06:02:04 10° W 06:05:23 60° N 06:08:44 10° E visible
03 Mar -0.8 03:43:13 17° ENE 03:43:13 17° ENE 03:44:06 10° ENE visible
03 Mar -3.5 05:16:10 30° WNW 05:17:37 60° N 05:20:59 10° E visible
04 Mar -3.3 04:30:15 58° NNE 04:30:15 58° NNE 04:33:13 10° ENE visible
04 Mar -3.6 06:03:27 10° WNW 06:06:50 73° NNE 06:10:14 10° E visible
05 Mar -1.0 03:44:19 20° ENE 03:44:19 20° ENE 03:45:28 10° ENE visible
05 Mar -3.5 05:17:16 25° WNW 05:19:04 64° N 05:22:27 10° E visible
